Location: Bakov nad Jizerou
(50.4784°N, 14.9394°E)
Time: 09:24:49
(UTC+00:00)

Cosmos 1943 Rocket - Pass Details

Date: 16 June 2021
Orbit: 813 x 843 km, 71.0° (Epoch: 04 August)

Event Time Altitude Azimuth Distance (km) Brightness Sun altitude
Rises 22:51:14 0° 332° (NNW) 3,349 6.5 -16.1°
Reaches altitude 10° 22:53:43 10° 337° (NNW) 2,413 5.7 -16.1°
Maximum altitude 22:59:08 54° 55° (NE) 982 2.7 -16.1°
Enters shadow 23:04:11 12° 132° (SE) 2,280 4.1 -16.1°
